Station Historical Data
Daily Summary for November 1, 2017 Units:  English    Metric   Both
« Previous Day
Next Day »
Daily Weekly Monthly Yearly Custom
  High: Low: Average:
Temperature: 45.4 °F 37.5 °F 41.3 °F
Dew Point: 39.7 °F 27.7 °F 33.8 °F
Humidity: 86% 66% 75%
Wind Speed: 8.0mph 0.0mph 1.4mph
Wind Gust: 14.0mph - -
Wind- - South
Pressure: 30.24 in 30.09 in -
Precipitation: 0.00 in    
Historical Graphs
 
 
Tabular Data for November 1, 2017
Time Temperature Dew Point Pressure Wind Wind Speed Wind Gust Humidity Rainfall Rate (Hourly)
00:04 39.7 °F 30.4 °F 30.20 in SSW 2.0 mph 6.0 mph 69% 0.00 in
00:09 39.7 °F 30.0 °F 30.20 in SSW 3.0 mph 6.0 mph 68% 0.00 in
00:14 39.7 °F 30.0 °F 30.20 in SSW 3.0 mph 7.0 mph 68% 0.00 in
00:19 39.7 °F 29.6 °F 30.20 in SSW 3.0 mph 7.0 mph 67% 0.00 in
00:24 39.8 °F 29.7 °F 30.20 in SSW 4.0 mph 10.0 mph 67% 0.00 in
00:29 39.8 °F 29.7 °F 30.20 in SSW 2.0 mph 7.0 mph 67% 0.00 in
00:34 39.8 °F 29.4 °F 30.20 in SSW 6.0 mph 8.0 mph 66% 0.00 in
00:39 39.9 °F 29.5 °F 30.20 in SSW 4.0 mph 8.0 mph 66% 0.00 in
00:44 39.8 °F 29.4 °F 30.20 in SSW 4.0 mph 11.0 mph 66% 0.00 in
00:49 39.8 °F 29.7 °F 30.19 in SSW 2.0 mph 6.0 mph 67% 0.00 in
00:54 39.8 °F 29.7 °F 30.20 in SSW 2.0 mph 7.0 mph 67% 0.00 in
00:59 39.8 °F 29.7 °F 30.20 in SSW 3.0 mph 7.0 mph 67% 0.00 in
01:04 39.7 °F 29.6 °F 30.20 in SSW 3.0 mph 8.0 mph 67% 0.00 in
01:09 39.7 °F 29.6 °F 30.20 in SSW 3.0 mph 8.0 mph 67% 0.00 in
01:14 39.7 °F 29.6 °F 30.20 in SSW 2.0 mph 6.0 mph 67% 0.00 in
01:19 39.7 °F 29.6 °F 30.19 in SSW 3.0 mph 7.0 mph 67% 0.00 in
01:24 39.7 °F 29.6 °F 30.19 in SSE 2.0 mph 6.0 mph 67% 0.00 in
01:29 39.6 °F 29.5 °F 30.19 in SSW 4.0 mph 7.0 mph 67% 0.00 in
01:34 39.6 °F 29.9 °F 30.19 in SSW 2.0 mph 7.0 mph 68% 0.00 in
01:39 39.4 °F 29.7 °F 30.19 in South 2.0 mph 5.0 mph 68% 0.00 in
01:44 39.4 °F 29.7 °F 30.19 in South 2.0 mph 6.0 mph 68% 0.00 in
01:49 39.3 °F 29.6 °F 30.19 in Calm   5.0 mph 68% 0.00 in
01:54 39.3 °F 30.0 °F 30.19 in SSW 1.0 mph 4.0 mph 69% 0.00 in
01:59 39.3 °F 30.0 °F 30.19 in SSE 2.0 mph 4.0 mph 69% 0.00 in
02:04 39.2 °F 29.9 °F 30.19 in SSW 3.0 mph 4.0 mph 69% 0.00 in
02:09 39.2 °F 29.9 °F 30.19 in South 1.0 mph 4.0 mph 69% 0.00 in
02:14 39.2 °F 29.9 °F 30.19 in SSW 2.0 mph 5.0 mph 69% 0.00 in
02:19 39.2 °F 29.9 °F 30.19 in Calm   6.0 mph 69% 0.00 in
02:24 39.2 °F 29.9 °F 30.19 in South 1.0 mph 6.0 mph 69% 0.00 in
02:29 39.2 °F 29.9 °F 30.18 in SSW 2.0 mph 5.0 mph 69% 0.00 in
02:34 39.2 °F 29.9 °F 30.19 in SSE 3.0 mph 4.0 mph 69% 0.00 in
02:39 39.2 °F 29.9 °F 30.19 in South 2.0 mph 5.0 mph 69% 0.00 in
02:44 39.2 °F 29.9 °F 30.19 in South 2.0 mph 5.0 mph 69% 0.00 in
02:49 39.1 °F 29.8 °F 30.19 in South 2.0 mph 7.0 mph 69% 0.00 in
02:54 39.3 °F 29.6 °F 30.19 in South 2.0 mph 6.0 mph 68% 0.00 in
02:59 39.3 °F 29.6 °F 30.19 in South 2.0 mph 6.0 mph 68% 0.00 in
03:04 39.3 °F 29.6 °F 30.19 in South 2.0 mph 6.0 mph 68% 0.00 in
03:09 39.3 °F 29.6 °F 30.19 in Calm   2.0 mph 68% 0.00 in
03:14 39.2 °F 29.5 °F 30.19 in SSW 1.0 mph 3.0 mph 68% 0.00 in
03:19 39.2 °F 29.5 °F 30.19 in Calm   3.0 mph 68% 0.00 in
03:24 39.2 °F 29.5 °F 30.19 in Calm   3.0 mph 68% 0.00 in
03:29 39.2 °F 29.2 °F 30.19 in Calm   1.0 mph 67% 0.00 in
03:34 39.1 °F 29.1 °F 30.19 in Calm     67% 0.00 in
03:39 39.0 °F 29.0 °F 30.19 in Calm   2.0 mph 67% 0.00 in
03:44 38.8 °F 29.1 °F 30.19 in Calm     68% 0.00 in
03:49 38.7 °F 29.0 °F 30.19 in Calm   1.0 mph 68% 0.00 in
03:54 38.6 °F 28.9 °F 30.19 in Calm   1.0 mph 68% 0.00 in
03:59 38.6 °F 28.9 °F 30.19 in Calm     68% 0.00 in
04:04 38.5 °F 28.9 °F 30.19 in Calm     68% 0.00 in
04:09 38.4 °F 28.8 °F 30.19 in Calm     68% 0.00 in
04:14 38.3 °F 29.0 °F 30.19 in Calm     69% 0.00 in
04:19 38.3 °F 29.0 °F 30.19 in Calm     69% 0.00 in
04:24 38.2 °F 28.9 °F 30.19 in Calm     69% 0.00 in
04:29 38.2 °F 28.9 °F 30.19 in South 1.0 mph 4.0 mph 69% 0.00 in
04:34 38.3 °F 29.0 °F 30.19 in Calm   1.0 mph 69% 0.00 in
04:39 38.3 °F 29.0 °F 30.19 in Calm     69% 0.00 in
04:44 38.4 °F 28.8 °F 30.19 in South 1.0 mph 3.0 mph 68% 0.00 in
04:49 38.5 °F 28.5 °F 30.19 in South 1.0 mph 5.0 mph 67% 0.00 in
04:54 38.4 °F 28.4 °F 30.19 in South 2.0 mph 5.0 mph 67% 0.00 in
04:59 38.4 °F 28.4 °F 30.19 in South 2.0 mph 6.0 mph 67% 0.00 in
05:04 38.4 °F 28.4 °F 30.19 in SSW 2.0 mph 6.0 mph 67% 0.00 in
05:09 38.3 °F 28.3 °F 30.19 in SSW 1.0 mph 6.0 mph 67% 0.00 in
05:14 38.3 °F 27.9 °F 30.19 in SSW 1.0 mph 6.0 mph 66% 0.00 in
05:19 38.2 °F 27.8 °F 30.20 in SSW 2.0 mph 4.0 mph 66% 0.00 in
05:24 38.2 °F 27.8 °F 30.20 in SSW 1.0 mph 3.0 mph 66% 0.00 in
05:29 38.2 °F 27.8 °F 30.20 in SSW 2.0 mph 3.0 mph 66% 0.00 in
05:34 38.2 °F 27.8 °F 30.21 in SSW 1.0 mph 4.0 mph 66% 0.00 in
05:39 38.2 °F 27.8 °F 30.21 in Calm   5.0 mph 66% 0.00 in
05:44 38.2 °F 27.8 °F 30.21 in SSW 1.0 mph 5.0 mph 66% 0.00 in
05:49 38.2 °F 27.8 °F 30.21 in Calm   3.0 mph 66% 0.00 in
05:54 38.2 °F 27.8 °F 30.21 in SSW 3.0 mph 4.0 mph 66% 0.00 in
05:59 38.2 °F 27.8 °F 30.21 in SW 1.0 mph 5.0 mph 66% 0.00 in
06:04 38.2 °F 27.8 °F 30.21 in SW 2.0 mph 5.0 mph 66% 0.00 in
06:09 38.1 °F 27.7 °F 30.21 in SW 2.0 mph 4.0 mph 66% 0.00 in
06:14 38.0 °F 28.0 °F 30.21 in SSW 1.0 mph 4.0 mph 67% 0.00 in
06:19 38.1 °F 27.7 °F 30.21 in SW 1.0 mph 4.0 mph 66% 0.00 in
06:24 38.1 °F 28.1 °F 30.21 in SW 1.0 mph 3.0 mph 67% 0.00 in
06:29 38.0 °F 28.0 °F 30.21 in Calm   3.0 mph 67% 0.00 in
06:34 38.0 °F 28.0 °F 30.21 in SSW 1.0 mph 5.0 mph 67% 0.00 in
06:39 38.1 °F 27.7 °F 30.21 in Calm   3.0 mph 66% 0.00 in
06:44 38.0 °F 28.0 °F 30.21 in SW 1.0 mph 3.0 mph 67% 0.00 in
06:49 38.0 °F 28.0 °F 30.21 in Calm   3.0 mph 67% 0.00 in
06:54 37.9 °F 27.9 °F 30.21 in Calm     67% 0.00 in
06:59 37.8 °F 28.2 °F 30.21 in Calm   1.0 mph 68% 0.00 in
07:04 37.7 °F 28.4 °F 30.22 in Calm     69% 0.00 in
07:09 37.7 °F 28.4 °F 30.22 in Calm   3.0 mph 69% 0.00 in
07:14 37.7 °F 28.4 °F 30.22 in Calm   3.0 mph 69% 0.00 in
07:19 37.7 °F 28.4 °F 30.22 in Calm   3.0 mph 69% 0.00 in
07:24 37.6 °F 28.3 °F 30.22 in Calm   4.0 mph 69% 0.00 in
07:29 37.7 °F 28.4 °F 30.22 in SSW 1.0 mph 5.0 mph 69% 0.00 in
07:34 37.7 °F 28.4 °F 30.22 in Calm   1.0 mph 69% 0.00 in
07:39 37.7 °F 28.4 °F 30.22 in Calm   3.0 mph 69% 0.00 in
07:44 37.7 °F 28.4 °F 30.22 in Calm   3.0 mph 69% 0.00 in
07:49 37.7 °F 28.4 °F 30.22 in Calm   3.0 mph 69% 0.00 in
07:54 37.7 °F 28.4 °F 30.22 in Calm     69% 0.00 in
07:59 37.7 °F 28.4 °F 30.22 in Calm     69% 0.00 in
08:04 37.6 °F 28.3 °F 30.22 in Calm     69% 0.00 in
08:09 37.5 °F 28.6 °F 30.22 in Calm     70% 0.00 in
08:14 37.7 °F 28.8 °F 30.22 in Calm   2.0 mph 70% 0.00 in
08:19 37.9 °F 29.0 °F 30.22 in Calm   2.0 mph 70% 0.00 in
08:24 37.9 °F 29.3 °F 30.23 in Calm   2.0 mph 71% 0.00 in
08:29 37.9 °F 29.3 °F 30.23 in Calm     71% 0.00 in
08:34 37.9 °F 29.3 °F 30.23 in Calm   2.0 mph 71% 0.00 in
08:39 38.0 °F 29.8 °F 30.23 in Calm   2.0 mph 72% 0.00 in
08:44 37.9 °F 29.7 °F 30.23 in Calm     72% 0.00 in
08:49 37.9 °F 29.7 °F 30.23 in Calm     72% 0.00 in
08:54 37.9 °F 29.7 °F 30.23 in Calm     72% 0.00 in
08:59 38.1 °F 29.5 °F 30.23 in Calm     71% 0.00 in
09:04 38.2 °F 29.6 °F 30.23 in Calm     71% 0.00 in
09:09 38.4 °F 29.8 °F 30.24 in Calm     71% 0.00 in
09:14 38.7 °F 29.8 °F 30.24 in Calm     70% 0.00 in
09:19 38.9 °F 29.9 °F 30.24 in Calm     70% 0.00 in
09:24 39.0 °F 30.0 °F 30.24 in Calm     70% 0.00 in
09:29 39.2 °F 30.6 °F 30.24 in Calm     71% 0.00 in
09:34 39.4 °F 30.8 °F 30.23 in Calm     71% 0.00 in
09:39 39.6 °F 30.6 °F 30.24 in Calm     70% 0.00 in
09:44 39.7 °F 30.4 °F 30.24 in Calm   2.0 mph 69% 0.00 in
09:49 39.7 °F 30.7 °F 30.24 in Calm   2.0 mph 70% 0.00 in
09:54 39.8 °F 30.5 °F 30.23 in SE 1.0 mph 3.0 mph 69% 0.00 in
09:59 39.8 °F 30.8 °F 30.23 in SSE 2.0 mph 2.0 mph 70% 0.00 in
10:04 39.9 °F 30.9 °F 30.23 in Calm   2.0 mph 70% 0.00 in
10:09 40.2 °F 31.2 °F 30.23 in Calm   2.0 mph 70% 0.00 in
10:14 40.4 °F 31.4 °F 30.23 in Calm     70% 0.00 in
10:19 40.5 °F 31.1 °F 30.23 in Calm   4.0 mph 69% 0.00 in
10:24 40.7 °F 31.3 °F 30.23 in SSE 2.0 mph 4.0 mph 69% 0.00 in
10:29 41.0 °F 31.6 °F 30.23 in Calm   3.0 mph 69% 0.00 in
10:34 41.2 °F 31.8 °F 30.23 in SSE 1.0 mph 3.0 mph 69% 0.00 in
10:39 41.6 °F 32.5 °F 30.22 in Calm   3.0 mph 70% 0.00 in
10:44 42.0 °F 32.6 °F 30.22 in SSE 1.0 mph 3.0 mph 69% 0.00 in
10:49 42.5 °F 33.0 °F 30.23 in SSE 1.0 mph 3.0 mph 69% 0.00 in
10:54 42.7 °F 33.2 °F 30.23 in Calm   4.0 mph 69% 0.00 in
10:59 42.8 °F 33.7 °F 30.22 in Calm   3.0 mph 70% 0.00 in
11:04 43.1 °F 33.6 °F 30.22 in SSW 1.0 mph 3.0 mph 69% 0.00 in
11:09 43.4 °F 34.3 °F 30.22 in SSW 1.0 mph 4.0 mph 70% 0.00 in
11:14 44.0 °F 34.8 °F 30.22 in SW 1.0 mph 5.0 mph 70% 0.00 in
11:19 44.9 °F 35.7 °F 30.23 in SW 7.0 mph 9.0 mph 70% 0.00 in
11:24 45.2 °F 36.0 °F 30.22 in SW 6.0 mph 7.0 mph 70% 0.00 in
11:29 45.4 °F 36.2 °F 30.22 in SW 2.0 mph 7.0 mph 70% 0.00 in
11:34 45.1 °F 35.9 °F 30.22 in SW 2.0 mph 10.0 mph 70% 0.00 in
11:39 44.9 °F 36.1 °F 30.22 in SSW 5.0 mph 11.0 mph 71% 0.00 in
11:44 44.9 °F 36.4 °F 30.22 in SSW 5.0 mph 11.0 mph 72% 0.00 in
11:49 45.1 °F 36.6 °F 30.22 in SSW 4.0 mph 11.0 mph 72% 0.00 in
11:54 45.0 °F 36.5 °F 30.22 in South 5.0 mph 12.0 mph 72% 0.00 in
11:59 44.7 °F 36.2 °F 30.21 in Calm   10.0 mph 72% 0.00 in
12:04 44.7 °F 36.6 °F 30.21 in SSW 5.0 mph 9.0 mph 73% 0.00 in
12:09 44.8 °F 36.7 °F 30.21 in South 3.0 mph 8.0 mph 73% 0.00 in
12:14 44.8 °F 37.0 °F 30.20 in SSW 4.0 mph 12.0 mph 74% 0.00 in
12:19 44.6 °F 36.8 °F 30.20 in SSW 5.0 mph 12.0 mph 74% 0.00 in
12:24 44.6 °F 36.8 °F 30.20 in ESE 7.0 mph 11.0 mph 74% 0.00 in
12:29 44.7 °F 37.3 °F 30.20 in SSW 5.0 mph 13.0 mph 75% 0.00 in
12:34 44.9 °F 37.1 °F 30.19 in SSW 5.0 mph 10.0 mph 74% 0.00 in
12:39 45.0 °F 37.2 °F 30.18 in SSW 2.0 mph 13.0 mph 74% 0.00 in
12:44 45.3 °F 37.5 °F 30.18 in South 5.0 mph 13.0 mph 74% 0.00 in
12:49 45.2 °F 37.4 °F 30.18 in South 5.0 mph 14.0 mph 74% 0.00 in
12:54 45.4 °F 37.6 °F 30.18 in South 5.0 mph 14.0 mph 74% 0.00 in
12:59 44.9 °F 37.1 °F 30.18 in South 5.0 mph 12.0 mph 74% 0.00 in
13:04 44.8 °F 37.4 °F 30.18 in South 5.0 mph 12.0 mph 75% 0.00 in
13:09 44.9 °F 37.5 °F 30.18 in South 3.0 mph 11.0 mph 75% 0.00 in
13:14 44.6 °F 37.2 °F 30.18 in SSW 4.0 mph 10.0 mph 75% 0.00 in
13:19 44.3 °F 37.2 °F 30.17 in South 4.0 mph 10.0 mph 76% 0.00 in
13:24 44.1 °F 37.3 °F 30.17 in South 4.0 mph 10.0 mph 77% 0.00 in
13:29 44.2 °F 38.1 °F 30.16 in SE 4.0 mph 6.0 mph 79% 0.00 in
13:34 44.3 °F 38.2 °F 30.16 in South 6.0 mph 8.0 mph 79% 0.00 in
13:39 44.2 °F 37.8 °F 30.17 in SW 3.0 mph 8.0 mph 78% 0.00 in
13:44 43.8 °F 37.4 °F 30.18 in SSE 8.0 mph 9.0 mph 78% 0.00 in
13:49 43.7 °F 37.3 °F 30.17 in South 2.0 mph 10.0 mph 78% 0.00 in
13:54 43.7 °F 37.3 °F 30.17 in SSE 3.0 mph 10.0 mph 78% 0.00 in
13:59 44.0 °F 37.6 °F 30.16 in SSE 3.0 mph 7.0 mph 78% 0.00 in
14:04 44.0 °F 37.6 °F 30.16 in SSE 4.0 mph 9.0 mph 78% 0.00 in
14:09 43.9 °F 37.2 °F 30.16 in SSE 4.0 mph 9.0 mph 77% 0.00 in
14:14 44.3 °F 37.5 °F 30.15 in South 2.0 mph 6.0 mph 77% 0.00 in
14:19 44.5 °F 37.7 °F 30.16 in SSW 5.0 mph 7.0 mph 77% 0.00 in
14:24 44.2 °F 37.1 °F 30.16 in SE 1.0 mph 7.0 mph 76% 0.00 in
14:29 43.9 °F 37.2 °F 30.16 in South 3.0 mph 7.0 mph 77% 0.00 in
14:34 43.9 °F 37.2 °F 30.15 in South 3.0 mph 6.0 mph 77% 0.00 in
14:39 43.9 °F 37.2 °F 30.15 in SSW 1.0 mph 5.0 mph 77% 0.00 in
14:44 43.9 °F 37.5 °F 30.15 in SSE 3.0 mph 4.0 mph 78% 0.00 in
14:49 43.9 °F 37.2 °F 30.15 in SW 3.0 mph 7.0 mph 77% 0.00 in
14:54 43.8 °F 37.4 °F 30.15 in SSE 1.0 mph 5.0 mph 78% 0.00 in
14:59 43.9 °F 37.5 °F 30.15 in South 2.0 mph 5.0 mph 78% 0.00 in
15:04 43.8 °F 37.1 °F 30.15 in SSE 2.0 mph 6.0 mph 77% 0.00 in
15:09 43.8 °F 37.1 °F 30.15 in SSE 2.0 mph 6.0 mph 77% 0.00 in
15:14 43.8 °F 37.4 °F 30.15 in SSE 2.0 mph 6.0 mph 78% 0.00 in
15:19 43.7 °F 37.3 °F 30.15 in SSE 1.0 mph 5.0 mph 78% 0.00 in
15:24 43.8 °F 37.4 °F 30.15 in SSE 1.0 mph 4.0 mph 78% 0.00 in
15:29 43.7 °F 37.3 °F 30.15 in SSE 2.0 mph 6.0 mph 78% 0.00 in
15:34 43.7 °F 37.3 °F 30.15 in SSE 2.0 mph 6.0 mph 78% 0.00 in
15:39 43.6 °F 37.5 °F 30.15 in SSE 3.0 mph 6.0 mph 79% 0.00 in
15:44 43.5 °F 37.4 °F 30.15 in SSW 2.0 mph 4.0 mph 79% 0.00 in
15:49 43.5 °F 37.7 °F 30.15 in South 2.0 mph 4.0 mph 80% 0.00 in
15:54 43.5 °F 37.7 °F 30.15 in South 2.0 mph 5.0 mph 80% 0.00 in
15:59 43.4 °F 37.6 °F 30.15 in SE 1.0 mph 4.0 mph 80% 0.00 in
16:04 43.3 °F 37.5 °F 30.15 in SE 2.0 mph 5.0 mph 80% 0.00 in
16:09 43.3 °F 37.5 °F 30.15 in SSE 2.0 mph 6.0 mph 80% 0.00 in
16:14 43.1 °F 37.3 °F 30.15 in SSE 2.0 mph 6.0 mph 80% 0.00 in
16:19 43.0 °F 37.3 °F 30.16 in SSE 2.0 mph 6.0 mph 80% 0.00 in
16:24 42.9 °F 37.2 °F 30.16 in South 2.0 mph 6.0 mph 80% 0.00 in
16:29 42.8 °F 37.1 °F 30.15 in South 2.0 mph 5.0 mph 80% 0.00 in
16:34 42.8 °F 37.1 °F 30.15 in South 4.0 mph 7.0 mph 80% 0.00 in
16:39 42.8 °F 37.4 °F 30.15 in SSE 2.0 mph 7.0 mph 81% 0.00 in
16:44 42.7 °F 37.3 °F 30.15 in Calm   5.0 mph 81% 0.00 in
16:49 42.8 °F 37.4 °F 30.15 in Calm   5.0 mph 81% 0.00 in
16:54 42.7 °F 37.3 °F 30.15 in SSE 1.0 mph 3.0 mph 81% 0.00 in
16:59 42.7 °F 37.6 °F 30.14 in SSE 3.0 mph 4.0 mph 82% 0.00 in
17:04 42.6 °F 37.5 °F 30.14 in Calm   3.0 mph 82% 0.00 in
17:09 42.5 °F 37.4 °F 30.14 in ESE 2.0 mph 5.0 mph 82% 0.00 in
17:14 42.4 °F 37.3 °F 30.14 in SE 2.0 mph 6.0 mph 82% 0.00 in
17:19 42.3 °F 37.2 °F 30.14 in SE 1.0 mph 6.0 mph 82% 0.00 in
17:24 42.3 °F 37.2 °F 30.14 in SSE 1.0 mph 4.0 mph 82% 0.00 in
17:29 42.3 °F 37.5 °F 30.14 in SSE 1.0 mph 4.0 mph 83% 0.00 in
17:34 42.3 °F 37.5 °F 30.14 in SSE 1.0 mph 4.0 mph 83% 0.00 in
17:39 42.2 °F 37.4 °F 30.13 in SE 1.0 mph 4.0 mph 83% 0.00 in
17:44 42.2 °F 37.4 °F 30.14 in Calm   3.0 mph 83% 0.00 in
17:49 42.2 °F 37.4 °F 30.14 in SE 1.0 mph 4.0 mph 83% 0.00 in
17:54 42.1 °F 37.3 °F 30.14 in Calm     83% 0.00 in
17:59 42.0 °F 37.2 °F 30.14 in Calm     83% 0.00 in
18:04 42.0 °F 37.2 °F 30.14 in Calm     83% 0.00 in
18:09 41.9 °F 37.1 °F 30.14 in Calm     83% 0.00 in
18:14 41.9 °F 37.4 °F 30.14 in Calm     84% 0.00 in
18:19 42.0 °F 37.5 °F 30.15 in Calm   2.0 mph 84% 0.00 in
18:24 42.1 °F 37.6 °F 30.15 in Calm   2.0 mph 84% 0.00 in
18:29 42.1 °F 37.3 °F 30.14 in Calm   3.0 mph 83% 0.00 in
18:34 42.1 °F 37.3 °F 30.14 in Calm   3.0 mph 83% 0.00 in
18:39 42.1 °F 37.3 °F 30.14 in Calm   2.0 mph 83% 0.00 in
18:44 42.2 °F 37.4 °F 30.13 in Calm   3.0 mph 83% 0.00 in
18:49 42.2 °F 37.1 °F 30.14 in Calm   4.0 mph 82% 0.00 in
18:54 42.3 °F 37.2 °F 30.13 in East 2.0 mph 5.0 mph 82% 0.00 in
18:59 42.4 °F 37.3 °F 30.13 in Calm   5.0 mph 82% 0.00 in
19:04 42.4 °F 37.3 °F 30.13 in Calm   4.0 mph 82% 0.00 in
19:09 42.5 °F 37.4 °F 30.13 in East 5.0 mph 6.0 mph 82% 0.00 in
19:14 42.5 °F 37.4 °F 30.13 in SSE 1.0 mph 5.0 mph 82% 0.00 in
19:19 42.5 °F 37.4 °F 30.13 in Calm   5.0 mph 82% 0.00 in
19:24 42.5 °F 37.4 °F 30.13 in Calm   5.0 mph 82% 0.00 in
19:29 42.5 °F 37.4 °F 30.13 in SE 1.0 mph 5.0 mph 82% 0.00 in
19:34 42.5 °F 37.4 °F 30.13 in SE 1.0 mph 5.0 mph 82% 0.00 in
19:39 42.5 °F 37.1 °F 30.13 in ESE 1.0 mph 5.0 mph 81% 0.00 in
19:44 42.5 °F 37.1 °F 30.13 in ESE 1.0 mph 6.0 mph 81% 0.00 in
19:49 42.6 °F 37.2 °F 30.13 in ESE 1.0 mph 6.0 mph 81% 0.00 in
19:54 42.5 °F 37.1 °F 30.12 in ESE 1.0 mph 6.0 mph 81% 0.00 in
19:59 42.5 °F 37.1 °F 30.13 in ESE 1.0 mph 5.0 mph 81% 0.00 in
20:04 42.5 °F 37.1 °F 30.13 in Calm   2.0 mph 81% 0.00 in
20:09 42.5 °F 37.1 °F 30.13 in Calm   1.0 mph 81% 0.00 in
20:14 42.5 °F 37.1 °F 30.12 in SE 2.0 mph 2.0 mph 81% 0.00 in
20:19 42.5 °F 37.1 °F 30.12 in East 2.0 mph 5.0 mph 81% 0.00 in
20:24 42.5 °F 37.1 °F 30.12 in Calm   4.0 mph 81% 0.00 in
20:29 42.5 °F 37.4 °F 30.12 in Calm     82% 0.00 in
20:34 42.5 °F 37.4 °F 30.11 in Calm     82% 0.00 in
20:44 42.5 °F 37.4 °F 30.13 in Calm   5.0 mph 82% 0.00 in
20:49 42.5 °F 37.4 °F 30.13 in East 1.0 mph 5.0 mph 82% 0.00 in
20:54 42.5 °F 37.4 °F 30.14 in Calm   3.0 mph 82% 0.00 in
20:59 42.5 °F 37.7 °F 30.14 in Calm     83% 0.00 in
21:04 42.6 °F 37.8 °F 30.13 in Calm     83% 0.00 in
21:09 42.6 °F 37.8 °F 30.13 in Calm     83% 0.00 in
21:14 42.7 °F 37.9 °F 30.13 in Calm     83% 0.00 in
21:19 42.7 °F 37.9 °F 30.13 in Calm     83% 0.00 in
21:24 42.7 °F 38.2 °F 30.14 in Calm     84% 0.00 in
21:29 42.7 °F 38.2 °F 30.14 in Calm     84% 0.00 in
21:34 42.7 °F 38.2 °F 30.13 in Calm     84% 0.00 in
21:39 42.7 °F 38.2 °F 30.14 in Calm     84% 0.00 in
21:44 42.8 °F 38.3 °F 30.14 in Calm     84% 0.00 in
21:49 42.8 °F 38.3 °F 30.13 in Calm     84% 0.00 in
21:54 42.8 °F 38.3 °F 30.13 in Calm     84% 0.00 in
21:59 42.8 °F 38.6 °F 30.13 in Calm     85% 0.00 in
22:04 42.8 °F 38.6 °F 30.13 in Calm     85% 0.00 in
22:09 42.8 °F 38.6 °F 30.13 in Calm     85% 0.00 in
22:14 42.8 °F 38.6 °F 30.13 in Calm     85% 0.00 in
22:19 42.9 °F 38.7 °F 30.13 in Calm     85% 0.00 in
22:24 42.9 °F 38.7 °F 30.13 in Calm     85% 0.00 in
22:29 42.9 °F 38.7 °F 30.13 in Calm     85% 0.00 in
22:34 42.9 °F 38.7 °F 30.13 in Calm     85% 0.00 in
22:39 43.0 °F 38.8 °F 30.13 in Calm     85% 0.00 in
22:44 43.0 °F 38.8 °F 30.12 in Calm     85% 0.00 in
22:49 43.0 °F 38.8 °F 30.12 in Calm     85% 0.00 in
22:54 43.1 °F 38.9 °F 30.12 in Calm     85% 0.00 in
22:59 43.1 °F 38.9 °F 30.12 in Calm     85% 0.00 in
23:09 43.2 °F 39.0 °F 30.11 in SE 1.0 mph 5.0 mph 85% 0.00 in
23:14 43.1 °F 38.9 °F 30.10 in ENE 2.0 mph 3.0 mph 85% 0.00 in
23:19 43.1 °F 39.2 °F 30.10 in Calm   4.0 mph 86% 0.00 in
23:24 43.2 °F 39.3 °F 30.09 in ESE 1.0 mph 6.0 mph 86% 0.00 in
23:29 43.2 °F 39.3 °F 30.09 in ENE 2.0 mph 5.0 mph 86% 0.00 in
23:34 43.3 °F 39.4 °F 30.09 in SE 3.0 mph 4.0 mph 86% 0.00 in
23:39 43.4 °F 39.5 °F 30.09 in Calm   3.0 mph 86% 0.00 in
23:44 43.4 °F 39.5 °F 30.09 in Calm   3.0 mph 86% 0.00 in
23:49 43.5 °F 39.6 °F 30.09 in Calm   2.0 mph 86% 0.00 in
23:54 43.6 °F 39.7 °F 30.09 in Calm   2.0 mph 86% 0.00 in
23:59 43.6 °F 39.7 °F 30.09 in Calm     86% 0.00 in
Buffalo, New York, USA
Compliments of Weather Underground - 2.5 mb